RH
83 62 66 45 100 100 98 94 60 34 31 36 57 100 62 28 23 71 100 100 100 74 60 59 78 78 85 83 82 77 71 70 97 100 100 94 100 100 100 100 100 100 100 100
89 88 63 50 100 100 100 93 61 40 32 39 62 100 69 30 25 25 41 88 100 88 74 46 44 54 63 68 69 74 74 68 56 100 100 100 85 97 100 100 100 100 100 100
100 100 70 42 100 100 100 99 70 46 33 33 88 100 78 34 24 25 36 48 80 79 61 44 39 35 41 38 45 56 57 73 78 83 95 100 100 100 98 100 100 100 100 96
63 100 85 51 70 76 100 100 77 49 31 29 78 97 93 47 26 24 33 39 32 30 29 32 30 18 16 15 17 35 36 48 74 71 83 71 92 100 100 100 100 100 100 100
100 98 77 50 99 100 100 100 83 64 40 34 44 50 90 65 30 26 24 43 44 38 61 83 81 86 62 34 33 30 40 57 90 68 92 97 86 84 96 100 99 99 96 90
100 98 73 97 86 95 100 100 96 83 44 35 38 37 64 76 32 29 24 38 47 44 60 90 80 98 97 87 53 42 91 100 90 79 100 100 100 100 100 100 99 89 76 88
100 100 100 86 73 68 100 100 100 92 68 48 40 43 66 87 36 32 26 26 42 51 51 66 70 72 88 85 73 60 49 64 83 83 84 86 91 100 100 98 98 100 99 97
99 100 100 100 100 100 100 100 93 99 69 53 41 39 90 100 58 38 31 28 32 32 41 84 77 70 88 93 68 66 65 62 55 60 58 55 70 80 81 90 90 87 83 86
100 100 100 99 99 100 100 83 99 74 88 67 44 41 97 100 93 56 36 32 31 34 34 32 38 59 73 61 79 72 72 74 94 92 83 84 78 67 64 65 65 67 88 88
100 100 100 100 74 76 93 100 96 91 91 81 49 39 56 100 100 86 41 39 39 38 38 32 27 29 31 28 28 54 78 80 60 82 94 91 89 91 86 88 84 81 78 72
100 100 100 100 99 98 100 100 100 100 95 87 60 44 44 60 100 97 57 43 45 36 38 36 29 27 30 30 28 32 46 64 75 85 91 93 88 82 66 63 71 75 72 81
100 100 100 100 100 100 100 100 100 100 82 84 68 60 63 57 85 100 81 53 42 42 44 42 38 39 33 30 32 33 43 47 60 72 68 64 75 61 66 75 92 100 100 100
100 100 100 100 100 99 97 100 100 100 100 94 93 69 61 74 79 100 100 86 48 52 46 45 56 43 42 39 34 34 36 46 81 100 100 100 100 100 99 97 91 92 100 100
100 100 95 100 100 100 100 100 100 100 96 99 71 54 50 63 77 89 100 100 93 65 77 53 57 54 48 55 44 41 38 37 42 43 45 56 81 91 94 99 100 100 100 100
97 100 99 86 100 100 100 100 100 96 84 64 84 71 61 55 72 80 56 96 100 100 100 78 68 64 59 75 64 52 47 45 42 46 48 51 56 56 68 81 98 100 100 99
40 46 73 99 100 98 92 94 90 86 78 72 65 58 57 78 94 87 61 100 100 96 100 100 100 94 77 85 96 76 65 51 47 48 51 52 51 47 49 53 54 56 50 40
24 24 32 42 57 66 72 71 71 58 61 54 48 60 62 75 100 100 98 72 80 92 97 100 100 70 73 64 100 100 83 70 64 57 59 56 55 51 49 46 45 45 53 58
28 23 18 31 37 40 42 52 52 45 50 51 54 52 100 84 87 99 100 100 100 77 59 70 100 74 54 47 54 76 92 86 76 62 63 69 66 62 58 62 58 57 64 64
24 23 20 23 25 26 27 42 50 50 59 64 52 59 100 100 84 100 100 100 99 73 89 76 69 61 51 48 69 60 55 73 82 68 55 57 62 66 64 57 59 68 71 62
20 24 21 19 20 25 35 45 51 52 58 66 52 82 100 100 99 100 100 100 100 73 72 74 90 78 94 82 83 95 78 64 73 70 71 60 58 77 72 70 60 61 78 68
17 19 24 19 16 24 31 48 51 51 64 71 63 95 100 86 100 100 100 100 73 96 100 100 100 100 100 87 98 92 80 62 61 64 61 70 83 90 85 79 73 72 66 72
18 22 33 15 14 30 34 48 49 52 73 100 96 100 96 92 100 100 100 100 100 100 100 100 100 100 100 97 90 73 48 40 41 49 61 66 79 83 79 79 80 80 86 90
26 32 20 12 16 33 36 46 54 55 83 100 100 100 95 100 100 97 100 100 100 100 100 100 100 100 98 65 51 58 50 55 49 59 64 65 63 74 91 89 85 90 91 93
16 25 16 10 15 31 37 47 60 65 83 100 100 100 100 100 100 100 99 87 69 88 100 100 100 100 80 57 50 51 62 69 78 69 64 63 67 80 84 83 85 89 92 92
18 18 14 13 18 34 40 44 61 68 85 100 100 100 100 100 100 100 100 100 99 62 61 95 95 95 63 69 68 64 71 92 90 67 69 72 81 84 93 95 90 86 96 98
18 25 14 15 13 28 33 45 64 80 98 100 100 100 100 100 100 100 97 97 99 82 93 100 100 100 100 81 79 92 94 99 91 73 82 92 98 100 97 98 100 98 96 89
Wind_Speed
54 44 47 43 38 39 40 36 40 47 34 30 32 33 39 38 26 29 47 47 47 52 54 67 58 57 62 60 65 60 63 64 61 59 58 70 64 67 61 61 61 64 69 71
54 46 49 42 40 40 40 32 37 42 32 28 31 34 37 36 32 22 32 47 40 34 33 55 66 58 72 73 61 68 56 61 65 65 63 66 74 74 72 70 72 70 67 68
55 56 49 41 43 44 44 36 30 38 32 28 26 31 38 38 34 29 21 34 47 50 44 37 49 60 60 67 84 77 73 65 63 69 70 72 75 77 76 73 70 67 71 74
55 56 52 42 43 42 47 41 31 27 28 27 25 31 38 35 35 31 23 20 22 24 29 27 28 34 37 43 59 88 80 73 74 65 65 74 80 76 76 73 78 79 73 71
53 59 55 42 49 43 49 45 37 31 30 34 26 33 34 32 33 35 24 15 16 17 21 18 18 15 19 26 34 50 62 70 68 65 66 65 70 72 73 73 74 76 76 77
58 64 57 50 51 47 53 47 40 34 34 36 32 30 32 27 29 33 25 10 13 15 18 18 19 16 15 20 26 33 40 49 53 62 63 64 65 68 72 73 73 72 76 75
64 63 63 57 54 54 53 53 46 37 37 38 32 23 29 24 23 29 25 18 12 14 17 21 19 21 21 21 21 25 31 41 53 54 53 52 57 58 62 57 57 55 55 55
66 63 60 60 57 59 56 57 53 42 45 42 32 26 26 24 21 23 24 21 18 12 12 21 25 23 25 24 26 26 29 32 36 38 39 39 41 44 45 45 45 48 48 49
66 63 64 63 63 64 59 56 55 49 42 39 39 30 25 26 23 22 20 17 19 18 16 14 17 24 33 33 32 32 30 32 34 36 37 36 37 40 43 47 48 49 50 53
67 65 69 70 67 62 62 61 58 53 43 39 49 39 32 25 26 19 17 15 15 16 17 17 14 7 12 24 30 36 38 34 36 37 38 39 42 42 43 48 50 50 51 54
73 69 70 74 69 68 67 64 58 56 46 44 45 43 36 29 28 21 17 17 16 12 13 17 17 18 14 14 15 28 34 37 39 46 49 49 47 47 48 49 46 46 46 47
82 76 70 69 69 64 62 63 63 60 56 48 50 41 36 32 28 29 19 17 16 16 17 16 16 19 21 18 14 10 21 29 29 30 32 32 37 39 37 33 37 40 41 45
89 83 79 77 76 71 74 72 69 65 59 51 47 47 40 37 34 30 26 21 18 17 16 18 20 18 19 22 20 15 11 11 24 29 33 36 41 41 43 42 41 41 37 45
98 94 90 84 84 85 79 70 66 64 59 51 58 63 58 48 40 34 33 27 23 24 21 17 18 20 19 19 20 19 18 15 16 19 22 27 35 44 49 50 49 46 46 49
106 100 96 95 92 94 91 84 77 74 71 74 58 65 59 49 44 41 38 30 29 26 24 20 19 22 21 20 20 21 20 18 15 18 21 24 28 32 33 36 39 40 42 53
91 98 107 104 99 99 99 97 93 78 70 68 65 61 55 53 46 45 40 31 32 29 26 25 24 26 23 22 23 23 25 25 24 22 19 20 23 26 30 31 33 34 39 44
79 78 82 87 97 103 108 95 92 85 77 74 64 51 60 58 46 47 45 42 39 33 29 31 28 30 32 25 27 29 29 28 27 29 27 30 30 31 32 34 35 34 35 38
72 79 70 70 80 88 75 77 76 73 67 62 55 56 59 59 48 45 48 46 47 44 43 37 34 35 35 34 30 29 33 33 33 37 36 35 36 37 39 40 42 42 44 45
72 74 71 74 74 74 73 67 66 62 52 53 53 57 60 56 47 44 49 48 46 43 44 44 44 45 43 37 37 39 38 41 43 43 43 43 46 46 45 45 47 50 49 51
70 74 73 65 65 63 61 64 66 58 48 54 57 63 63 56 46 46 51 46 45 43 44 45 46 44 42 44 43 42 44 44 47 48 50 50 52 52 53 54 54 55 56 58
67 71 68 66 57 58 59 63 62 58 46 60 62 65 65 58 55 51 51 52 46 46 46 45 43 43 48 50 50 51 50 49 49 51 52 54 56 58 58 59 60 62 62 63
67 68 72 65 50 54 59 64 61 54 62 59 65 66 68 61 60 59 58 52 51 47 51 52 48 50 53 55 56 55 54 54 56 57 59 60 61 62 64 64 66 68 69 71
70 74 75 59 52 56 59 62 62 61 65 58 65 67 67 63 64 61 57 55 55 53 52 50 51 54 59 62 61 57 59 61 63 64 65 65 68 67 67 69 71 74 75 76
69 71 69 60 54 60 62 66 64 67 71 67 63 62 65 63 63 61 59 63 63 60 57 56 57 60 65 64 66 67 67 68 68 70 72 72 70 71 71 73 76 78 79 81
66 71 68 62 58 62 63 66 69 73 73 72 64 62 61 64 66 63 62 63 63 67 66 64 64 66 68 70 71 72 71 72 72 78 78 75 75 76 76 79 81 82 84 86
62 67 64 63 56 62 63 65 70 72 73 71 67 65 64 63 62 62 64 65 62 62 65 68 70 72 73 73 73 72 74 74 79 81 80 79 79 79 82 84 85 87 89 91
Wind_Direction
263 275 268 275 276 284 286 291 306 317 317 313 328 339 335 337 338 250 227 243 246 240 240 229 233 238 231 220 230 223 227 227 230 231 232 231 240 242 250 253 253 259 261 265
267 263 269 272 276 285 277 285 304 311 316 307 327 324 335 336 335 322 258 245 248 253 248 242 238 244 237 231 236 230 232 233 232 234 236 235 238 245 249 255 257 260 262 265
261 259 270 265 270 278 271 277 301 309 320 302 320 323 331 333 338 332 299 260 253 251 252 243 234 235 240 245 238 232 239 234 232 235 237 239 244 248 251 255 257 262 261 267
258 260 267 259 266 272 267 268 284 305 322 309 312 313 325 335 337 340 316 304 274 255 251 254 255 244 236 237 237 235 238 240 235 236 237 240 243 249 253 258 260 262 266 269
249 256 260 263 268 272 259 264 276 288 307 306 310 309 316 328 327 337 341 303 291 262 252 245 238 241 252 239 235 235 236 234 232 234 237 237 241 247 253 257 260 262 266 267
250 255 258 257 261 264 264 263 268 282 296 306 313 303 304 323 323 329 346 336 310 278 253 254 248 229 234 236 235 228 229 233 235 235 237 240 243 246 247 253 254 258 262 265
252 253 254 257 262 263 266 262 258 277 291 303 311 288 295 314 322 331 346 355 321 301 274 260 254 251 246 247 243 239 231 226 231 237 244 247 248 251 253 257 261 262 264 269
251 253 255 256 256 257 258 259 258 267 285 296 308 283 287 296 316 309 332 358 349 351 303 275 266 262 251 251 248 240 232 232 231 236 242 244 246 249 252 257 262 266 270 272
249 251 253 254 256 257 259 259 253 266 284 291 297 290 275 286 299 304 322 343 4 357 341 319 275 272 271 255 248 250 247 242 239 244 250 254 258 260 259 261 265 266 272 278
247 250 252 253 258 263 264 254 258 268 278 281 293 295 263 270 283 283 294 321 336 338 338 354 2 312 287 275 259 248 248 250 252 256 258 261 262 268 270 269 273 274 278 282
245 246 247 249 255 255 254 250 258 268 275 280 287 296 245 252 269 265 271 277 296 306 322 330 356 9 11 346 282 249 247 248 251 254 255 257 261 268 276 277 281 282 280 280
243 243 242 245 244 245 248 256 264 267 272 271 275 289 244 246 253 262 258 272 277 290 302 315 335 356 2 17 3 327 268 260 269 273 275 279 275 272 273 275 277 282 290 287
243 243 241 239 244 249 257 261 267 271 270 272 270 276 263 245 244 257 253 267 272 280 293 300 315 326 338 358 7 357 330 301 261 261 268 273 279 282 283 284 281 278 278 270
242 242 243 243 251 253 254 255 257 261 262 259 269 275 278 246 236 239 246 256 269 276 278 287 294 306 321 331 336 351 350 320 296 291 285 283 277 276 277 277 276 273 266 265
240 241 243 243 247 251 254 256 256 257 262 266 269 270 272 240 235 238 241 247 256 269 277 274 286 289 300 312 312 324 327 333 329 300 292 293 291 289 284 278 276 277 270 266
242 243 242 241 242 247 251 252 256 257 258 263 264 265 254 232 235 238 242 244 249 255 275 264 277 283 283 292 295 299 311 318 320 319 311 304 310 303 292 289 288 285 283 282
242 242 240 240 242 244 246 251 254 255 254 258 254 245 234 227 228 237 242 243 244 246 253 261 265 273 278 280 288 289 290 300 307 310 308 306 312 309 305 299 290 289 291 292
243 243 237 237 238 240 242 241 243 245 243 243 237 229 223 224 223 234 243 248 251 256 254 249 260 265 272 279 280 288 285 288 296 305 304 305 307 306 305 298 299 297 296 297
237 240 240 237 236 238 237 235 236 234 232 235 224 218 218 222 220 231 242 247 250 255 258 259 263 270 274 275 283 289 294 292 293 300 303 304 307 309 307 304 302 298 298 301
230 232 236 239 235 234 229 228 229 227 214 224 221 215 214 219 217 230 238 244 249 255 261 268 271 274 277 279 283 285 290 291 293 299 301 302 304 305 307 306 307 306 303 303
225 230 233 235 228 225 222 220 222 219 208 220 218 216 217 218 219 223 238 242 247 254 259 265 268 270 272 277 280 284 287 290 295 298 299 301 302 302 304 304 302 302 305 304
220 224 230 228 221 213 217 216 219 208 211 215 217 218 217 220 223 224 227 235 244 252 258 260 259 260 268 274 278 282 288 292 296 300 301 301 303 303 302 303 303 304 304 305
213 219 227 227 217 210 211 215 215 208 208 213 221 220 221 223 226 229 232 236 241 247 254 255 258 261 268 273 277 283 289 297 298 300 302 300 302 304 302 302 303 303 304 305
216 219 225 226 215 207 209 210 211 210 207 209 221 224 224 226 229 232 235 240 243 241 245 247 253 260 269 277 283 284 292 298 296 298 301 302 302 302 300 301 302 303 305 306
217 221 224 223 205 204 209 209 210 209 209 210 218 224 227 231 234 237 240 246 251 254 252 258 264 268 273 279 283 285 292 294 295 298 300 300 300 300 301 301 302 304 305 306
215 220 225 225 212 207 209 210 213 212 211 214 218 223 228 232 235 239 243 248 248 251 255 259 263 270 274 279 283 285 288 290 294 297 298 299 300 300 300 301 302 303 305 306